This demonstration page uses our WeatherBlox Daily Observations layout. Learn more.

Left ArrowRight Arrow

36.19886, -115.1175

Hourly Observations for October 7, 2020

Temp ( °F °C ) Dew Point ( °F °C ) Humidity (%) Winds ( mph kmh ) Pressure ( in mb ) Visibility ( mi km ) Precip ( " mm )
12:53 am 00:53 Clear 72 22.2 23 -5 16 16 WNW 3 6 29.91 1013 10 16 0.00 0.00
1:53 am 01:53 Clear 69 20.6 26 -3.3 20 20 NW 5 7 29.91 1013 10 16 0.00 0.00
2:53 am 02:53 Clear 70 21.1 27 -2.8 20 20 WNW 7 11 29.90 1013 10 16 0.00 0.00
3:53 am 03:53 Clear 68 20 25 -3.9 20 20 WNW 5 7 29.91 1013 10 16 0.00 0.00
4:53 am 04:53 Clear 68 20 27 -2.8 21 21 WNW 7 11 29.91 1013 10 16 0.00 0.00
5:53 am 05:53 Clear 67 19.4 26 -3.3 21 21 Calm 29.92 1013 10 16 0.00 0.00
6:53 am 06:53 Sunny 70 21.1 25 -3.9 18 18 W 3 6 29.93 1014 10 16 0.00 0.00
7:53 am 07:53 Sunny 68 20 28 -2.2 22 22 Calm 29.95 1014 10 16 0.00 0.00
8:53 am 08:53 Sunny 77 25 25 -3.9 14 14 Calm 29.95 1014 10 16 0.00 0.00
9:53 am 09:53 Sunny 80 26.7 24 -4.4 13 13 SE 3 6 29.96 1014 10 16 0.00 0.00
10:53 am 10:53 Sunny 85 29.4 18 -7.8 8 8 VRB 3 6 29.95 1014 10 16 0.00 0.00
11:53 am 11:53 Sunny 89 31.7 14 -10 6 6 E 6 9 29.92 1013 10 16 0.00 0.00
12:53 pm 12:53 Sunny 91 32.8 16 -8.9 6 6 VRB 5 7 29.90 1012 10 16 0.00 0.00
1:53 pm 13:53 Sunny 92 33.3 17 -8.3 6 6 VRB 6 9 29.87 1011 10 16 0.00 0.00
2:53 pm 14:53 Sunny 94 34.4 18 -7.8 6 6 SSE 7 11 29.84 1011 10 16 0.00 0.00
3:53 pm 15:53 Sunny 95 35 19 -7.2 6 6 SE 8 13 29.82 1010 10 16 0.00 0.00
4:53 pm 16:53 Sunny 95 35 19 -7.2 6 6 SE 9 15 29.81 1009 10 16 0.00 0.00
5:53 pm 17:53 Sunny 93 33.9 19 -7.2 7 7 E 5 7 29.80 1009 10 16 0.00 0.00
6:53 pm 18:53 Clear 89 31.7 20 -6.7 8 8 NNE 3 6 29.81 1010 10 16 0.00 0.00
7:53 pm 19:53 Clear 85 29.4 23 -5 10 10 NW 5 7 29.84 1010 10 16 0.00 0.00
8:53 pm 20:53 Clear 80 26.7 27 -2.8 14 14 NW 5 7 29.83 1010 10 16 0.00 0.00
9:53 pm 21:53 Clear 78 25.6 26 -3.3 15 15 NW 7 11 29.84 1011 10 16 0.00 0.00
10:53 pm 22:53 Clear 76 24.4 26 -3.3 16 16 NW 5 7 29.84 1011 10 16 0.00 0.00
11:53 pm 23:53 Clear 74 23.3 28 -2.2 18 18 NNW 7 11 29.84 1011 10 16 0.00 0.00

Powered by AerisWeather